Location: Sungai Dangang
(2.7500°N, 113.8333°E)
Time: 18:46:16
(UTC+00:00)

Ariane H10+ - Pass Details

Date: 01 October 2021
Orbit: 237 x 7755 km, 6.8° (Epoch: 21 October)

Event Time Altitude Azimuth Distance (km) Brightness Sun altitude
Exits shadow 20:35:22 31° 255° (WSW) 3,922 5.0 -24.8°
Maximum altitude 20:46:53 83° 170° (S) 4,309 5.7 -21.9°
Drops below altitude 10° 21:40:50 10° 84° (E) 11,572 9.6 -8.5°
Sets 21:52:20 0° 84° (E) 12,376 10.5 -5.6°
